Location: ????????
(55.7667°N, 37.4833°E)
Time: 03:18:51
(UTC+00:00)

Cosmos 2084 Rocket - Pass Details

Date: 19 May 2025
Orbit: 542 x 579 km, 62.8° (Epoch: 14 June)

Event Time Altitude Azimuth Distance (km) Brightness Sun altitude
Rises 20:19:39 0° 234° (SW) 2,783 6.7 -13.0°
Reaches altitude 10° 20:21:53 10° 235° (SW) 1,883 5.8 -13.0°
Maximum altitude 20:26:08 84° 323° (NW) 580 3.4 -13.2°
Drops below altitude 10° 20:30:22 10° 53° (NE) 1,870 6.3 -13.3°
Sets 20:32:36 0° 54° (NE) 2,763 7.2 -13.4°
